Time,TemperatureF,DewpointF,PressureIn,WindDirection,WindDirectionDegrees,WindSpeedMPH,WindSpeedGustMPH,Humidity,HourlyPrecipIn,Conditions,Clouds,dailyrainin,SoftwareType,DateUTC
2013-02-16 00:04:00,26.9,23.0,30.20,NW,326,0.0,0.0,84,0.00,,,0.00,weatherlink.com 1.10,2013-02-16 06:04:00,
2013-02-16 00:19:00,26.5,22.0,30.20,NW,326,0.0,0.0,83,0.00,,,0.00,weatherlink.com 1.10,2013-02-16 06:19:00,
2013-02-16 00:35:00,26.4,23.0,30.20,NW,326,0.0,0.0,85,0.00,,,0.00,weatherlink.com 1.10,2013-02-16 06:35:00,
2013-02-16 00:50:00,26.7,23.0,30.20,NW,326,1.0,2.0,87,0.00,,,0.00,weatherlink.com 1.10,2013-02-16 06:50:00,
2013-02-16 01:05:00,27.9,24.0,30.19,NW,326,0.0,1.0,86,0.00,,,0.00,weatherlink.com 1.10,2013-02-16 07:05:00,
2013-02-16 01:20:00,28.3,24.0,30.20,NW,326,2.0,3.0,84,0.00,,,0.00,weatherlink.com 1.10,2013-02-16 07:20:00,
2013-02-16 01:35:00,28.3,24.0,30.19,NW,313,5.0,6.0,83,0.00,,,0.00,weatherlink.com 1.10,2013-02-16 07:35:00,
2013-02-16 01:50:00,30.2,23.0,30.19,NNW,335,7.0,9.0,75,0.00,,,0.00,weatherlink.com 1.10,2013-02-16 07:50:00,
2013-02-16 02:05:00,30.2,23.0,30.19,NNW,348,7.0,12.0,74,0.00,,,0.00,weatherlink.com 1.10,2013-02-16 08:05:00,
2013-02-16 02:20:00,29.1,22.0,30.20,North,355,2.0,7.0,75,0.00,,,0.00,weatherlink.com 1.10,2013-02-16 08:20:00,
2013-02-16 02:35:00,28.4,21.0,30.19,North,355,4.0,8.0,75,0.00,,,0.00,weatherlink.com 1.10,2013-02-16 08:35:00,
2013-02-16 02:50:00,28.6,22.0,30.19,North,355,3.0,9.0,75,0.00,,,0.00,weatherlink.com 1.10,2013-02-16 08:50:00,
2013-02-16 03:05:00,28.7,21.0,30.19,North,351,5.0,11.0,74,0.00,,,0.00,weatherlink.com 1.10,2013-02-16 09:05:00,
2013-02-16 03:20:00,28.7,21.0,30.19,NNW,339,5.0,10.0,74,0.00,,,0.00,weatherlink.com 1.10,2013-02-16 09:20:00,
2013-02-16 03:35:00,28.7,21.0,30.20,NNW,335,15.0,15.0,74,0.00,,,0.00,weatherlink.com 1.10,2013-02-16 09:35:00,
2013-02-16 03:50:00,28.2,19.0,30.20,North,355,12.0,14.0,69,0.00,,,0.00,weatherlink.com 1.10,2013-02-16 09:50:00,
2013-02-16 04:05:00,28.3,20.0,30.20,NNW,336,8.0,16.0,71,0.00,,,0.00,weatherlink.com 1.10,2013-02-16 10:05:00,
2013-02-16 04:20:00,28.1,20.0,30.21,NNW,341,7.0,15.0,73,0.00,,,0.00,weatherlink.com 1.10,2013-02-16 10:20:00,
2013-02-16 04:35:00,27.5,20.0,30.21,NNW,338,8.0,16.0,74,0.00,,,0.00,weatherlink.com 1.10,2013-02-16 10:35:00,
2013-02-16 04:50:00,27.2,20.0,30.22,NNW,333,11.0,14.0,73,0.00,,,0.00,weatherlink.com 1.10,2013-02-16 10:50:00,
2013-02-16 05:05:00,26.8,18.0,30.22,NNW,340,12.0,15.0,70,0.00,,,0.00,weatherlink.com 1.10,2013-02-16 11:05:00,
2013-02-16 05:20:00,26.5,18.0,30.22,NNW,344,10.0,16.0,69,0.00,,,0.00,weatherlink.com 1.10,2013-02-16 11:20:00,
2013-02-16 05:35:00,26.0,18.0,30.22,NNW,331,11.0,14.0,73,0.00,,,0.00,weatherlink.com 1.10,2013-02-16 11:35:00,
2013-02-16 05:50:00,25.8,19.0,30.22,NNW,339,8.0,10.0,74,0.00,,,0.00,weatherlink.com 1.10,2013-02-16 11:50:00,
2013-02-16 06:05:00,25.7,18.0,30.22,North,355,5.0,10.0,74,0.00,,,0.00,weatherlink.com 1.10,2013-02-16 12:05:00,
2013-02-16 06:20:00,25.6,18.0,30.22,North,355,8.0,9.0,74,0.00,,,0.00,weatherlink.com 1.10,2013-02-16 12:20:00,
2013-02-16 06:35:00,25.3,17.0,30.22,NNW,348,9.0,12.0,72,0.00,,,0.00,weatherlink.com 1.10,2013-02-16 12:35:00,
2013-02-16 06:50:00,25.1,18.0,30.23,NNW,335,5.0,10.0,74,0.00,,,0.00,weatherlink.com 1.10,2013-02-16 12:50:00,
2013-02-16 07:05:00,25.5,18.0,30.23,NNW,336,9.0,13.0,74,0.00,,,0.00,weatherlink.com 1.10,2013-02-16 13:05:00,
2013-02-16 07:20:00,25.7,19.0,30.23,NNW,327,10.0,15.0,75,0.00,,,0.00,weatherlink.com 1.10,2013-02-16 13:20:00,
2013-02-16 07:35:00,25.8,18.0,30.24,NNW,332,9.0,15.0,73,0.00,,,0.00,weatherlink.com 1.10,2013-02-16 13:35:00,
2013-02-16 07:50:00,25.6,18.0,30.24,NNW,329,14.0,16.0,73,0.00,,,0.00,weatherlink.com 1.10,2013-02-16 13:50:00,
2013-02-16 08:05:00,26.2,19.0,30.24,NNW,336,11.0,15.0,73,0.00,,,0.00,weatherlink.com 1.10,2013-02-16 14:05:00,
2013-02-16 08:20:00,26.5,19.0,30.25,NNW,345,10.0,16.0,72,0.00,,,0.00,weatherlink.com 1.10,2013-02-16 14:20:00,
2013-02-16 08:35:00,27.1,19.0,30.25,NW,319,7.0,16.0,72,0.00,,,0.00,weatherlink.com 1.10,2013-02-16 14:35:00,
2013-02-16 08:50:00,27.4,19.0,30.25,NNW,333,10.0,14.0,72,0.00,,,0.00,weatherlink.com 1.10,2013-02-16 14:50:00,
2013-02-16 09:06:00,27.5,19.0,30.25,WNW,301,10.0,16.0,69,0.00,,,0.00,weatherlink.com 1.10,2013-02-16 15:06:00,
2013-02-16 09:21:00,28.4,19.0,30.25,NNW,336,7.0,13.0,69,0.00,,,0.00,weatherlink.com 1.10,2013-02-16 15:21:00,
2013-02-16 09:36:00,28.9,21.0,30.25,NNW,331,9.0,12.0,71,0.00,,,0.00,weatherlink.com 1.10,2013-02-16 15:36:00,
2013-02-16 09:51:00,28.1,20.0,30.25,NW,304,7.0,15.0,72,0.00,,,0.00,weatherlink.com 1.10,2013-02-16 15:51:00,
2013-02-16 10:06:00,28.8,19.0,30.25,North,5,7.0,14.0,68,0.00,,,0.00,weatherlink.com 1.10,2013-02-16 16:06:00,
2013-02-16 10:21:00,29.6,20.0,30.25,NW,326,9.0,12.0,67,0.00,,,0.00,weatherlink.com 1.10,2013-02-16 16:21:00,
2013-02-16 10:36:00,29.7,20.0,30.25,NNW,335,11.0,17.0,66,0.00,,,0.00,weatherlink.com 1.10,2013-02-16 16:36:00,
2013-02-16 10:51:00,30.4,19.0,30.25,North,355,13.0,14.0,64,0.00,,,0.00,weatherlink.com 1.10,2013-02-16 16:51:00,
2013-02-16 11:06:00,30.6,20.0,30.25,NNW,337,10.0,14.0,65,0.00,,,0.00,weatherlink.com 1.10,2013-02-16 17:06:00,
2013-02-16 11:21:00,31.0,20.0,30.25,NNW,338,6.0,18.0,64,0.00,,,0.00,weatherlink.com 1.10,2013-02-16 17:21:00,
2013-02-16 11:36:00,31.5,21.0,30.24,NW,313,8.0,15.0,64,0.00,,,0.00,weatherlink.com 1.10,2013-02-16 17:36:00,
2013-02-16 11:51:00,31.5,20.0,30.24,NW,311,13.0,17.0,62,0.00,,,0.00,weatherlink.com 1.10,2013-02-16 17:51:00,
2013-02-16 12:06:00,32.4,20.0,30.24,NW,313,7.0,15.0,61,0.00,,,0.00,weatherlink.com 1.10,2013-02-16 18:06:00,
2013-02-16 12:21:00,32.4,21.0,30.23,NW,321,6.0,12.0,62,0.00,,,0.00,weatherlink.com 1.10,2013-02-16 18:21:00,
2013-02-16 12:36:00,33.3,20.0,30.22,NNW,344,10.0,13.0,58,0.00,,,0.00,weatherlink.com 1.10,2013-02-16 18:36:00,
2013-02-16 12:51:00,33.7,20.0,30.22,NNW,334,9.0,14.0,57,0.00,,,0.00,weatherlink.com 1.10,2013-02-16 18:51:00,
2013-02-16 13:06:00,33.7,20.0,30.21,WNW,301,6.0,12.0,58,0.00,,,0.00,weatherlink.com 1.10,2013-02-16 19:06:00,
2013-02-16 13:21:00,34.1,20.0,30.21,NNW,336,8.0,15.0,56,0.00,,,0.00,weatherlink.com 1.10,2013-02-16 19:21:00,
2013-02-16 13:36:00,34.4,20.0,30.21,West,281,6.0,13.0,57,0.00,,,0.00,weatherlink.com 1.10,2013-02-16 19:36:00,
2013-02-16 13:51:00,34.2,19.0,30.21,NW,306,10.0,15.0,53,0.00,,,0.00,weatherlink.com 1.10,2013-02-16 19:51:00,
2013-02-16 14:06:00,34.4,18.0,30.20,NNW,330,12.0,17.0,52,0.00,,,0.00,weatherlink.com 1.10,2013-02-16 20:06:00,
2013-02-16 14:21:00,34.5,19.0,30.20,NNW,333,15.0,16.0,54,0.00,,,0.00,weatherlink.com 1.10,2013-02-16 20:21:00,
2013-02-16 14:36:00,34.9,18.0,30.20,NNW,333,10.0,17.0,51,0.00,,,0.00,weatherlink.com 1.10,2013-02-16 20:36:00,
2013-02-16 14:51:00,34.4,16.0,30.20,NW,319,10.0,18.0,48,0.00,,,0.00,weatherlink.com 1.10,2013-02-16 20:51:00,
2013-02-16 15:06:00,34.6,18.0,30.20,NW,309,9.0,13.0,51,0.00,,,0.00,weatherlink.com 1.10,2013-02-16 21:06:00,
2013-02-16 15:21:00,35.3,19.0,30.20,NNW,328,9.0,14.0,52,0.00,,,0.00,weatherlink.com 1.10,2013-02-16 21:21:00,
2013-02-16 15:36:00,35.5,18.0,30.20,West,281,9.0,12.0,49,0.00,,,0.00,weatherlink.com 1.10,2013-02-16 21:36:00,
2013-02-16 15:51:00,35.6,18.0,30.20,NNW,330,7.0,13.0,48,0.00,,,0.00,weatherlink.com 1.10,2013-02-16 21:51:00,
2013-02-16 16:06:00,35.5,16.0,30.19,WNW,301,7.0,11.0,46,0.00,,,0.00,weatherlink.com 1.10,2013-02-16 22:06:00,
2013-02-16 16:21:00,35.4,17.0,30.20,West,270,5.0,15.0,47,0.00,,,0.00,weatherlink.com 1.10,2013-02-16 22:21:00,
2013-02-16 16:36:00,35.0,16.0,30.19,NW,321,7.0,9.0,47,0.00,,,0.00,weatherlink.com 1.10,2013-02-16 22:36:00,
2013-02-16 16:51:00,34.4,17.0,30.19,NW,304,6.0,9.0,49,0.00,,,0.00,weatherlink.com 1.10,2013-02-16 22:51:00,
2013-02-16 17:06:00,33.8,17.0,30.19,WNW,283,3.0,10.0,50,0.00,,,0.00,weatherlink.com 1.10,2013-02-16 23:06:00,
2013-02-16 17:21:00,33.2,18.0,30.19,WNW,296,3.0,5.0,53,0.00,,,0.00,weatherlink.com 1.10,2013-02-16 23:21:00,
2013-02-16 17:36:00,32.4,18.0,30.20,West,275,3.0,5.0,55,0.00,,,0.00,weatherlink.com 1.10,2013-02-16 23:36:00,
2013-02-16 17:51:00,32.1,17.0,30.19,WNW,284,3.0,6.0,54,0.00,,,0.00,weatherlink.com 1.10,2013-02-16 23:51:00,
2013-02-16 18:06:00,31.2,16.0,30.20,WNW,284,0.0,2.0,54,0.00,,,0.00,weatherlink.com 1.10,2013-02-17 00:06:00,
2013-02-16 18:21:00,30.8,14.0,30.20,WNW,284,0.0,1.0,51,0.00,,,0.00,weatherlink.com 1.10,2013-02-17 00:21:00,
2013-02-16 18:36:00,31.0,14.0,30.20,WNW,284,0.0,3.0,50,0.00,,,0.00,weatherlink.com 1.10,2013-02-17 00:36:00,
2013-02-16 18:51:00,30.7,15.0,30.20,WNW,284,0.0,2.0,52,0.00,,,0.00,weatherlink.com 1.10,2013-02-17 00:51:00,
2013-02-16 19:06:00,29.8,14.0,30.20,WNW,284,0.0,0.0,53,0.00,,,0.00,weatherlink.com 1.10,2013-02-17 01:06:00,
2013-02-16 19:21:00,28.6,14.0,30.19,WNW,284,0.0,0.0,55,0.00,,,0.00,weatherlink.com 1.10,2013-02-17 01:21:00,
2013-02-16 19:36:00,27.8,17.0,30.20,WNW,284,0.0,0.0,63,0.00,,,0.00,weatherlink.com 1.10,2013-02-17 01:36:00,
2013-02-16 19:51:00,28.0,18.0,30.20,WNW,284,0.0,1.0,67,0.00,,,0.00,weatherlink.com 1.10,2013-02-17 01:51:00,
2013-02-16 20:06:00,27.0,15.0,30.20,WNW,284,0.0,0.0,60,0.00,,,0.00,weatherlink.com 1.10,2013-02-17 02:06:00,
2013-02-16 20:21:00,26.1,15.0,30.20,WNW,284,0.0,0.0,64,0.00,,,0.00,weatherlink.com 1.10,2013-02-17 02:21:00,
2013-02-16 20:36:00,26.8,18.0,30.21,WNW,284,0.0,0.0,68,0.00,,,0.00,weatherlink.com 1.10,2013-02-17 02:36:00,
2013-02-16 20:51:00,26.5,19.0,30.21,WNW,284,0.0,1.0,72,0.00,,,0.00,weatherlink.com 1.10,2013-02-17 02:51:00,
2013-02-16 21:06:00,26.1,20.0,30.21,WNW,284,0.0,2.0,76,0.00,,,0.00,weatherlink.com 1.10,2013-02-17 03:06:00,
2013-02-16 21:21:00,25.3,19.0,30.21,WNW,284,0.0,0.0,78,0.00,,,0.00,weatherlink.com 1.10,2013-02-17 03:21:00,
2013-02-16 21:36:00,24.2,19.0,30.21,WNW,284,0.0,0.0,81,0.00,,,0.00,weatherlink.com 1.10,2013-02-17 03:36:00,
2013-02-16 21:51:00,23.7,18.0,30.22,WNW,284,0.0,0.0,80,0.00,,,0.00,weatherlink.com 1.10,2013-02-17 03:51:00,
2013-02-16 22:06:00,23.4,19.0,30.22,WNW,284,0.0,0.0,82,0.00,,,0.00,weatherlink.com 1.10,2013-02-17 04:06:00,
2013-02-16 22:21:00,23.1,18.0,30.22,WNW,284,0.0,0.0,81,0.00,,,0.00,weatherlink.com 1.10,2013-02-17 04:21:00,
2013-02-16 22:36:00,22.8,18.0,30.21,WNW,284,0.0,0.0,82,0.00,,,0.00,weatherlink.com 1.10,2013-02-17 04:36:00,
2013-02-16 22:51:00,22.4,18.0,30.21,WNW,284,0.0,0.0,83,0.00,,,0.00,weatherlink.com 1.10,2013-02-17 04:51:00,
2013-02-16 23:06:00,22.2,16.0,30.20,WNW,284,0.0,0.0,78,0.00,,,0.00,weatherlink.com 1.10,2013-02-17 05:06:00,
2013-02-16 23:21:00,22.2,17.0,30.21,WNW,284,0.0,0.0,80,0.00,,,0.00,weatherlink.com 1.10,2013-02-17 05:21:00,
2013-02-16 23:36:00,22.2,18.0,30.20,WNW,284,0.0,0.0,83,0.00,,,0.00,weatherlink.com 1.10,2013-02-17 05:36:00,
2013-02-16 23:51:00,22.0,18.0,30.20,WNW,284,0.0,0.0,84,0.00,,,0.00,weatherlink.com 1.10,2013-02-17 05:51:00,